Regional Weather Roundup
Issued by NWS

Home | Current Version | Previous Version | Graphics & Text | Print | Product List | Glossary On
Versions: 1 2 3 4 5 6 7 8 9 10 11 12 13 14 15 16 17 18 19 20 21 22 23 24 25 26 27 28 29 30 31 32 33 34 35 36 37 38 39 40 41 42 43 44 45 46 47 48 49 50
574
ASUS43 KBIS 061902
RWRND

NORTH DAKOTA REGIONAL WEATHER ROUNDUP
NATIONAL WEATHER SERVICE BISMARCK ND
100 PM CST SAT FEB 06 2016

NOTE: "FAIR" INDICATES FEW OR NO CLOUDS BELOW 12,000 FEET WITH NO
SIGNIFICANT WEATHER AND/OR OBSTRUCTIONS TO VISIBILITY.


NDZ001>003-009>011-017-062000-
NORTHWEST NORTH DAKOTA

CITY           SKY/WX    TMP DP  RH WIND       PRES   REMARKS
WILLISTON      CLOUDY    47  28  47 W20G28    29.66F
MINOT          CLOUDY    51  26  37 SW23G29   29.61F
MINOT AFB      CLOUDY    51  29  42 W21G32    29.59F
$$

NDZ018>021-031>035-040>046-062000-
SOUTHWEST NORTH DAKOTA

CITY           SKY/WX    TMP DP  RH WIND       PRES   REMARKS
BISMARCK       LGT RAIN  47  29  49 SW10      29.74F
DICKINSON      CLOUDY    48  22  35 W24G31    29.72F
GARRISON         N/A     46  27  47 W17       29.66F
HETTINGER ARPT CLOUDY    49  20  31 W24G30    29.81F
$$

NDZ004>008-012>016-024-026-027-054-062000-
NORTHEAST NORTH DAKOTA

CITY           SKY/WX    TMP DP  RH WIND       PRES   REMARKS
GRAND FORKS    PTSUNNY   36  29  75 S13       29.68F
GRND FRKS AFB  MOSUNNY   38  29  69 SW8       29.67F
DEVILS LAKE    CLOUDY    38  31  76 SW12      29.64F
$$

NDZ022-023-025-028>030-036>039-047>053-062000-
SOUTHEAST NORTH DAKOTA

CITY           SKY/WX    TMP DP  RH WIND       PRES   REMARKS
FARGO          MOSUNNY   37  28  70 S14       29.75F
JAMESTOWN      CLOUDY    40  31  70 SW16      29.69F
$$





USA.gov is the U.S. government's official web portal to all federal, state and local government web resources and services.